Tracking 26544 objects as of 9-Dec-2022
HD Live streaming from Space Station
objects crossing your sky now

STARLINK-5035

Track STARLINK-5035 now!
10-day predictions
STARLINK-5035 is classified as:


NORAD ID: 53897
Int'l Code: 2022-119M
Perigee: 546.1 km
Apogee: 547.7 km
Inclination: 53.2 °
Period: 95.4 minutes
Semi major axis: 6917 km
RCS: Unknown
Launch date: September 24, 2022
Source: United States (US)
Launch site: AIR FORCE EASTERN TEST RANGE (AFETR)
aabbcc
Your satellite tracking list
Your tracking list is empty




NASA's NSSDC Master Catalog

Two Line Element Set (TLE):
1 53897U 22119M   22342.46212600 -.00000372  00000-0 -53177-5 0  9993
2 53897  53.2165 253.7797 0001210 112.7240 247.3880 15.08835687 12036
Source of the keplerian elements: AFSPC